GW7138 Weather Reports


time (UTC)temp
C
wind
direction
speed
KPH
gust
KPH
rain 1hr
cm
rain 24hr
cm
rain mn
cm
humidity
%
barometer
mb
20260505060558 25 267 0.0 0.0 0.00 3.84 3.84 97 1010.0
20260505060055 25 267 0.0 0.0 0.00 3.84 3.84 97 1010.0
20260505055550 25 267 0.0 0.0 0.00 3.84 3.84 97 1010.0
20260505055047 25 267 0.0 0.0 0.00 3.84 3.84 97 1010.0
20260505054545 25 267 0.0 0.0 0.00 3.84 3.84 97 1010.0
20260505054043 25 267 0.0 0.0 0.00 3.84 3.84 96 1010.0
20260505053539 25 267 0.0 0.0 0.00 3.84 3.84 96 1010.3
20260505053036 25 267 0.0 0.0 0.00 3.84 3.84 96 1010.0
20260505052533 25 267 0.0 0.0 0.00 3.84 3.84 96 1010.0
20260505052031 25 267 0.0 0.0 0.00 3.84 3.84 96 1010.0
20260505051527 25 267 0.0 0.0 0.00 3.84 3.84 97 1010.0
20260505051026 25 267 0.0 0.0 0.00 3.84 3.84 96 1009.6
20260505050523 25 267 0.0 0.0 0.00 3.84 3.84 97 1009.6
20260505041451 25 267 0.0 0.0 0.00 3.71 3.71 97 1009.6
20260505040948 25 267 0.0 0.0 0.00 3.71 3.71 97 1009.6
20260505040446 25 267 0.0 0.0 0.00 3.68 3.68 97 1009.6
20260505035942 25 267 0.0 0.0 0.00 3.66 3.66 97 1009.6
20260505035438 25 267 0.0 0.0 0.00 3.63 3.63 97 1009.6
20260505034936 25 267 0.0 0.0 0.00 3.63 3.63 97 1009.6
20260505034432 25 267 3.2 8.0 0.00 3.63 3.63 97 1009.6
20260505033929 25 30 0.0 0.0 0.00 3.61 3.61 96 1009.6
20260505033426 25 51 0.0 0.0 0.00 3.56 3.56 96 1009.6
20260505032924 25 51 1.6 4.8 0.00 3.56 3.56 96 1009.3
20260505032421 25 51 6.4 9.7 0.00 3.53 3.53 97 1009.6
20260505031918 25 51 0.0 0.0 0.00 3.53 3.53 97 1009.3
20260505031414 25 51 0.0 0.0 0.00 3.51 3.51 97 1009.3
20260505030911 25 51 0.0 0.0 0.00 3.48 3.48 97 1009.3
20260505030407 25 51 0.0 0.0 0.00 3.45 3.45 97 1009.0
20260505025902 24 51 0.0 0.0 0.00 3.45 3.45 97 1009.0
20260505025400 25 51 0.0 0.0 0.00 3.43 3.43 97 1009.0
20260505024859 25 51 0.0 0.0 0.00 3.43 3.43 97 1009.0
20260505024356 24 51 0.0 0.0 0.00 3.43 3.43 97 1009.0
20260505023853 24 51 0.0 0.0 1.19 3.35 3.35 96 1009.0
20260505023350 24 51 0.0 6.4 1.19 3.28 3.28 96 1009.3
20260505022847 24 68 6.4 8.0 1.19 3.23 3.23 96 1009.3
20260505022344 24 330 0.0 0.0 0.00 3.10 3.10 96 1009.3
20260505021842 24 330 0.0 0.0 1.19 3.00 3.00 96 1009.3
20260505021338 24 330 0.0 3.2 3.61 2.84 2.84 96 1009.3
20260505020834 23 352 9.7 14.5 2.39 2.41 2.41 96 1009.3
20260505020330 24 279 12.9 17.7 9.60 1.98 1.98 94 1009.3
20260505015827 25 273 19.3 24.1 5.99 1.27 1.27 94 1009.0
20260505015324 25 36 0.0 3.2 1.19 1.04 1.04 94 1009.3
20260505014821 25 36 0.0 0.0 1.19 0.99 0.99 94 1009.0
20260505014318 25 36 0.0 0.0 0.00 0.99 0.99 94 1009.3
20260505013814 26 36 0.0 0.0 1.19 0.97 0.97 94 1009.3
20260505013312 26 33 6.4 11.3 5.99 0.23 0.23 91 1009.3
20260505012810 26 33 6.4 11.3 5.99 0.23 0.23 91 1009.3
20260505012307 26 44 11.3 14.5 0.00 0.15 0.15 91 1009.3
20260505011803 26 104 6.4 11.3 0.00 0.15 0.15 90 1009.0
20260505011300 26 36 3.2 6.4 0.00 0.15 0.15 90 1009.3
20260505010756 26 8 0.0 0.0 0.00 0.15 0.15 91 1009.3
20260505010252 26 3 0.0 4.8 0.00 0.15 0.15 90 1009.3
20260505005748 26 11 3.2 8.0 0.00 0.13 0.13 90 1009.6
20260505005246 26 172 9.7 9.7 0.00 0.13 0.13 89 1009.6
20260505004743 26 150 11.3 17.7 0.00 0.13 0.13 89 1009.3
20260505004239 27 123 12.9 17.7 0.00 0.13 0.13 88 1009.6
20260505003736 27 131 9.7 11.3 0.00 0.13 0.13 87 1009.6
20260505003234 28 143 1.6 6.4 0.00 0.08 0.08 84 1009.6
20260505002730 28 175 4.8 8.0 0.00 0.08 0.08 83 1009.6
20260505002228 28 169 9.7 16.1 0.00 0.08 0.08 82 1009.6
20260505001725 29 166 8.0 12.9 0.00 0.08 0.08 81 1009.6
20260505001223 29 166 9.7 14.5 0.00 0.08 0.08 81 1009.6
20260505000719 28 158 17.7 22.5 0.00 0.08 0.08 80 1009.6
20260505000218 30 138 19.3 22.5 0.00 0.08 0.08 74 1009.3
20260504235713 32 244 0.0 4.8 0.00 0.08 0.08 65 1009.6
20260504235209 31 236 4.8 9.7 0.00 0.08 0.08 67 1009.6
20260504234707 32 241 12.9 16.1 0.00 0.08 0.08 67 1009.6
20260504234204 32 248 8.0 14.5 0.00 0.08 0.08 67 1009.6
20260504233700 32 202 3.2 12.9 0.00 0.08 0.08 69 1009.6
20260504233156 30 78 0.0 4.8 0.00 0.08 0.08 74 1009.6
20260504232654 30 94 3.2 9.7 0.00 0.08 0.08 76 1010.0
20260504232150 30 97 11.3 14.5 0.00 0.08 0.08 75 1009.6
20260504231647 30 57 3.2 9.7 0.00 0.08 0.08 75 1009.6
20260504231144 30 66 6.4 12.9 0.00 0.08 0.08 76 1009.6
20260504230640 30 91 6.4 9.7 0.00 0.08 0.08 76 1009.6
20260504230139 30 68 6.4 12.9 0.00 0.08 0.08 77 1009.6
20260504225637 30 90 1.6 6.4 0.00 0.08 0.08 75 1010.3
20260504225132 30 153 0.0 0.0 0.00 0.08 0.08 74 1010.3
20260504224629 31 153 4.8 6.4 0.00 0.08 0.08 74 1010.3
20260504224126 30 153 0.0 0.0 0.00 0.08 0.08 76 1010.3
20260504223623 30 153 0.0 0.0 0.00 0.08 0.08 77 1010.7
20260504223119 30 153 0.0 0.0 0.00 0.08 0.08 77 1010.7
20260504222616 29 153 4.8 8.0 0.00 0.08 0.08 80 1010.7
20260504222114 28 122 6.4 9.7 0.00 0.08 0.08 81 1010.7
20260504221611 29 121 8.0 9.7 0.00 0.08 0.08 81 1010.7
20260504221108 29 109 6.4 8.0 0.00 0.08 0.08 80 1010.7
20260504220604 28 114 8.0 11.3 0.00 0.08 0.08 81 1011.0
20260504220101 30 122 6.4 6.4 0.00 0.08 0.08 77 1011.0
20260504215557 31 232 0.0 0.0 0.00 0.08 0.08 73 1011.3
20260504215055 31 232 0.0 0.0 0.00 0.08 0.08 73 1011.3
20260504214550 31 232 0.0 0.0 0.00 0.08 0.08 74 1011.3
20260504214047 31 232 0.0 0.0 0.00 0.08 0.08 73 1011.3
20260504213544 31 232 1.6 6.4 0.00 0.08 0.08 73 1011.3
20260504213041 31 232 1.6 6.4 0.00 0.08 0.08 74 1011.7
20260504212537 31 206 0.0 0.0 0.00 0.08 0.08 75 1011.3
20260504212034 30 206 0.0 6.4 0.00 0.08 0.08 75 1011.7
20260504211531 30 206 0.0 0.0 0.00 0.08 0.08 74 1011.7
20260504211028 30 206 0.0 0.0 0.00 0.08 0.08 74 1011.3
20260504210525 30 206 0.0 6.4 0.00 0.08 0.08 76 1011.7
20260504210022 30 202 0.0 6.4 0.00 0.08 0.08 76 1011.7
20260504205520 30 204 0.0 0.0 0.00 0.08 0.08 76 1011.7
20260504205017 30 237 6.4 9.7 0.00 0.08 0.08 76 1011.7
20260504204515 30 258 6.4 9.7 0.00 0.08 0.08 76 1011.7
20260504204014 30 250 6.4 12.9 0.00 0.08 0.08 75 1011.7
20260504203512 31 247 6.4 14.5 0.00 0.08 0.08 73 1011.7
20260504203009 31 264 0.0 1.6 0.00 0.08 0.08 76 1011.7
20260504202504 30 264 0.0 0.0 0.00 0.08 0.08 78 1011.3
20260504202001 31 264 0.0 0.0 0.00 0.08 0.08 73 1011.3
20260504201458 32 264 0.0 0.0 0.00 0.08 0.08 72 1011.3
20260504200955 31 264 0.0 0.0 0.00 0.08 0.08 76 1011.3
20260504200452 30 264 0.0 0.0 0.00 0.08 0.08 81 1011.7
20260504195949 29 264 0.0 0.0 0.00 0.08 0.08 85 1011.7
20260504195445 28 264 0.0 0.0 0.00 0.08 0.08 88 1011.7
20260504194942 27 264 0.0 0.0 0.00 0.08 0.08 90 1012.0
20260504194438 27 264 0.0 0.0 0.00 0.08 0.08 90 1012.0
20260504193934 27 264 0.0 0.0 0.00 0.08 0.08 91 1011.7
20260504193431 27 264 0.0 0.0 0.00 0.08 0.08 92 1011.3
20260504192930 26 264 0.0 3.2 0.00 0.08 0.08 92 1011.7
20260504192426 26 264 0.0 0.0 0.00 0.08 0.08 93 1011.7
20260504191926 26 264 0.0 0.0 0.00 0.08 0.08 94 1011.7
20260504191423 26 264 0.0 0.0 0.00 0.08 0.08 94 1011.7
20260504190918 26 265 1.6 6.4 0.00 0.08 0.08 95 1011.7
20260504190414 26 187 0.0 0.0 0.00 0.08 0.08 96 1011.7
20260504185911 26 187 0.0 0.0 0.00 0.08 0.08 96 1011.7
20260504185408 26 187 0.0 0.0 0.00 0.08 0.08 96 1011.7
20260504184904 26 187 0.0 0.0 0.00 0.08 0.08 96 1011.7
20260504184400 26 187 0.0 0.0 0.00 0.08 0.08 96 1011.7
20260504183856 26 187 0.0 0.0 0.00 0.08 0.08 96 1011.3
20260504183354 26 187 0.0 0.0 0.00 0.08 0.08 96 1011.3
20260504182851 26 187 0.0 0.0 0.00 0.08 0.08 95 1011.3
20260504182348 25 187 0.0 0.0 0.00 0.08 0.08 95 1011.3
20260504181845 26 187 0.0 0.0 0.00 0.08 0.08 95 1011.3
20260504181342 25 11 0.0 0.0 0.00 0.08 0.08 95 1011.3
20260504180841 25 235 0.0 0.0 0.00 0.05 0.05 95 1011.3
20260504180339 25 274 0.0 0.0 0.00 0.05 0.05 95 1011.3
20260504175837 25 274 0.0 0.0 0.00 0.03 0.03 96 1011.0
20260504175333 25 277 3.2 8.0 0.00 0.03 0.03 96 1010.7
20260504174832 25 280 4.8 8.0 0.00 0.03 0.03 96 1010.7
20260504174329 25 280 6.4 9.7 0.00 0.03 0.03 96 1010.7
20260504173826 25 267 3.2 8.0 0.00 0.03 0.03 96 1010.7
20260504173322 25 267 1.6 4.8 0.00 0.03 0.03 96 1010.7
20260504172820 25 267 0.0 1.6 0.00 0.03 0.03 96 1010.7
20260504172316 25 262 4.8 8.0 0.00 0.03 0.03 96 1010.3
20260504171812 25 262 0.0 0.0 0.00 0.03 0.03 96 1010.0
20260504171309 25 262 0.0 4.8 0.00 0.03 0.03 96 1010.3
20260504170806 25 262 0.0 0.0 0.00 0.03 0.03 96 1010.3
20260504170303 25 262 0.0 0.0 0.00 0.03 0.03 96 1010.3
20260504160221 25 262 0.0 0.0 0.00 0.03 0.03 96 1010.0
20260504151150 25 284 0.0 0.0 0.00 0.03 0.03 96 1010.0
20260504150647 25 284 0.0 0.0 0.00 0.03 0.03 96 1010.0
20260504150144 25 284 0.0 0.0 0.00 0.03 0.03 96 1010.0
20260504141113 25 272 0.0 0.0 0.00 0.00 0.00 96 1011.0
20260504140609 25 272 0.0 6.4 0.00 0.00 0.00 96 1011.0
20260504140105 25 272 0.0 0.0 0.00 0.00 0.00 96 1011.0
20260504130533 25 272 1.6 6.4 0.00 0.00 0.00 96 1011.3
20260504110421 25 272 0.0 0.0 0.00 0.00 0.00 96 1012.0
20260504100337 25 272 0.0 0.0 0.00 2.29 2.29 96 1012.0
20260504081731 25 272 0.0 0.0 0.00 2.29 2.29 95 1012.0
20260504081227 25 272 0.0 4.8 0.00 2.29 2.29 95 1012.0
20260504080724 25 272 4.8 6.4 0.00 2.29 2.29 95 1012.0
20260504080220 25 272 0.0 0.0 0.00 2.29 2.29 95 1012.0
20260504070148 25 145 0.0 0.0 0.00 2.29 2.29 93 1011.0